YO8SDE-8 Weather Reports


time (UTC)temp
C
wind
direction
speed
KPH
gust
KPH
rain 1hr
cm
rain 24hr
cm
rain mn
cm
humidity
%
barometer
mb
20260906053107 16 292 0.0 0.0 0.00 0.00 0.00 79 1006.4
20260906052607 17 292 0.0 0.0 0.00 0.00 0.00 83 1006.3
20260906052107 16 292 0.0 0.0 0.00 0.00 0.00 85 1006.3
20260906051607 16 270 0.0 0.0 0.00 0.00 0.00 86 1006.2
20260906051107 16 315 0.0 0.0 0.00 0.00 0.00 88 1006.2
20260906050607 16 270 0.0 0.0 0.00 0.00 0.00 88 1006.1
20260906050107 16 270 0.0 0.0 0.00 0.00 0.00 89 1006.0
20260906045607 16 270 0.0 0.0 0.00 0.00 0.00 89 1006.0
20260906045107 15 270 0.0 0.0 0.00 0.00 0.00 90 1006.1
20260906044607 15 270 0.0 0.0 0.00 0.00 0.00 91 1006.0
20260906044107 15 270 0.0 0.0 0.00 0.00 0.00 91 1005.9
20260906043607 15 270 0.0 0.0 0.00 0.00 0.00 91 1005.9
20260906043108 15 292 0.0 0.0 0.00 0.00 0.00 91 1005.9
20260906042607 14 270 0.0 0.0 0.00 0.00 0.00 91 1005.9
20260906042107 14 270 0.0 0.0 0.00 0.00 0.00 91 1006.0
20260906041607 14 270 0.0 0.0 0.00 0.00 0.00 91 1006.1
20260906041107 15 270 0.0 0.0 0.00 0.00 0.00 91 1005.9
20260906040607 15 270 0.0 0.0 0.00 0.00 0.00 91 1005.9
20260906040107 15 270 0.0 0.0 0.00 0.00 0.00 91 1005.9
20260906035608 15 247 0.0 0.0 0.00 0.00 0.00 92 1005.7
20260906035107 14 225 0.0 0.0 0.00 0.00 0.00 92 1005.6
20260906034607 14 225 0.0 0.0 0.00 0.00 0.00 92 1005.6
20260906034107 14 225 0.0 0.0 0.00 0.00 0.00 92 1005.6
20260906033607 15 247 0.0 0.0 0.00 0.00 0.00 92 1005.6
20260906033108 15 270 0.0 0.0 0.00 0.00 0.00 92 1005.6
20260906032607 14 270 0.0 0.0 0.00 0.00 0.00 92 1005.5
20260906032108 14 270 0.0 0.0 0.00 0.00 0.00 93 1005.6
20260906031607 14 270 0.0 0.0 0.00 0.00 0.00 93 1005.5
20260906031108 14 270 0.0 0.0 0.00 0.00 0.00 93 1005.6
20260906030608 14 270 0.0 0.0 0.00 0.00 0.00 93 1005.5
20260906030107 14 270 0.0 0.0 0.00 0.00 0.00 94 1005.6
20260906025608 14 315 0.0 0.0 0.00 0.00 0.00 94 1005.6
20260906025108 13 292 0.0 0.0 0.00 0.00 0.00 94 1005.1
20260906024607 13 225 0.0 0.0 0.00 0.00 0.00 94 1004.9
20260906024108 13 247 0.0 0.0 0.00 0.00 0.00 94 1004.9
20260906023608 13 270 0.0 0.0 0.00 0.00 0.00 94 1004.8
20260906023108 13 315 0.0 0.0 0.00 0.00 0.00 93 1004.8
20260906022608 12 315 0.0 0.0 0.00 0.00 0.00 93 1004.7
20260906022108 12 315 0.0 0.0 0.00 0.00 0.00 93 1004.6
20260906021608 12 315 0.0 0.0 0.00 0.00 0.00 93 1004.7
20260906021108 12 315 0.0 0.0 0.00 0.00 0.00 93 1004.7
20260906020608 12 270 0.0 0.0 0.00 0.00 0.00 93 1004.9
20260906020108 12 270 0.0 0.0 0.00 0.00 0.00 93 1004.9
20260906015608 12 270 0.0 0.0 0.00 0.00 0.00 93 1004.9
20260906015108 12 270 0.0 0.0 0.00 0.00 0.00 93 1004.9
20260906014608 12 270 0.0 0.0 0.00 0.00 0.00 93 1004.9
20260906014108 12 270 0.0 0.0 0.00 0.00 0.00 93 1004.8
20260906013608 12 270 0.0 0.0 0.00 0.00 0.00 93 1004.9
20260906013108 12 270 0.0 0.0 0.00 0.00 0.00 93 1004.9
20260906012608 12 270 0.0 0.0 0.00 0.00 0.00 93 1004.9
20260906012108 12 270 0.0 0.0 0.00 0.00 0.00 93 1004.8
20260906011608 12 270 0.0 0.0 0.00 0.00 0.00 92 1004.9
20260906011108 12 270 0.0 0.0 0.00 0.00 0.00 92 1004.9
20260906010608 12 270 0.0 0.0 0.00 0.00 0.00 93 1004.9
20260906010108 12 270 0.0 0.0 0.00 0.00 0.00 92 1005.0
20260906005608 12 270 0.0 0.0 0.00 0.00 0.00 92 1004.9
20260906005108 12 270 0.0 0.0 0.00 0.00 0.00 93 1004.9
20260906004608 12 270 0.0 0.0 0.00 0.00 0.00 93 1004.9
20260906004108 12 270 0.0 0.0 0.00 0.00 0.00 93 1004.9
20260906003608 12 270 0.0 0.0 0.00 0.00 0.00 93 1004.9
20260906003108 12 270 0.0 0.0 0.00 0.00 0.00 92 1004.9
20260906002608 12 270 0.0 0.0 0.00 0.00 0.00 92 1005.0
20260906002108 12 270 0.0 0.0 0.00 0.00 0.00 92 1004.9
20260906001608 12 270 0.0 0.0 0.00 0.00 0.00 92 1004.9
20260906001108 12 270 0.0 0.0 0.00 0.00 0.00 92 1004.9
20260906000608 12 270 0.0 0.0 0.00 0.00 0.00 92 1005.1
20260906000108 12 270 0.0 0.0 0.00 0.00 0.00 92 1005.1
20260905235608 12 270 0.0 0.0 0.00 0.00 0.00 92 1005.1
20260905235108 13 270 0.0 0.0 0.00 0.00 0.00 92 1005.1
20260905234608 13 270 0.0 0.0 0.00 0.00 0.00 92 1005.1
20260905234108 12 270 0.0 0.0 0.00 0.00 0.00 92 1005.0
20260905233608 12 247 0.0 0.0 0.00 0.00 0.00 91 1005.0
20260905233108 12 247 0.0 0.0 0.00 0.00 0.00 91 1005.0
20260905232608 12 247 0.0 0.0 0.00 0.00 0.00 91 1005.2
20260905232108 12 247 0.0 0.0 0.00 0.00 0.00 91 1005.0
20260905231608 12 247 0.0 0.0 0.00 0.00 0.00 91 1005.3
20260905231108 12 247 0.0 0.0 0.00 0.00 0.00 90 1005.4
20260905230608 12 247 0.0 0.0 0.00 0.00 0.00 91 1005.4
20260905230108 12 247 0.0 0.0 0.00 0.00 0.00 91 1005.4
20260905225608 13 247 0.0 0.0 0.00 0.00 0.00 91 1005.4
20260905225108 13 247 0.0 0.0 0.00 0.00 0.00 91 1005.4
20260905224608 13 247 0.0 0.0 0.00 0.00 0.00 91 1005.4
20260905224108 13 247 0.0 0.0 0.00 0.00 0.00 90 1005.3
20260905223608 13 247 0.0 0.0 0.00 0.00 0.00 91 1005.4
20260905223108 13 247 0.0 0.0 0.00 0.00 0.00 91 1005.5
20260905222608 13 247 0.0 0.0 0.00 0.00 0.00 90 1005.3
20260905222108 13 247 0.0 0.0 0.00 0.00 0.00 90 1005.4
20260905221608 13 247 0.0 0.0 0.00 0.00 0.00 90 1005.4
20260905221108 13 247 0.0 0.0 0.00 0.00 0.00 90 1005.4
20260905220608 13 247 0.0 0.0 0.00 0.00 0.00 90 1005.5
20260905220108 14 247 0.0 0.0 0.00 0.00 0.00 90 1005.4
20260905215608 14 247 0.0 0.0 0.00 0.00 0.00 90 1005.5
20260905215108 14 247 0.0 0.0 0.00 0.00 0.00 91 1005.2
20260905214608 14 247 0.0 0.0 0.00 0.00 0.00 91 1005.3
20260905214108 15 247 0.0 0.0 0.00 0.00 0.00 91 1005.3
20260905213608 15 247 0.0 0.0 0.00 0.00 0.00 91 1005.2
20260905213108 14 247 0.0 0.0 0.00 0.00 0.00 91 1005.2
20260905212608 14 247 0.0 0.0 0.00 0.00 0.00 91 1005.2
20260905212108 14 247 0.0 0.0 0.00 0.00 0.00 91 1005.1
20260905211608 14 247 0.0 0.0 0.00 0.00 0.00 90 1005.0
20260905211108 14 247 0.0 0.0 0.00 0.00 0.00 90 1004.8
20260905210608 15 247 0.0 0.0 0.00 0.00 0.00 90 1004.9
20260905210108 15 247 0.0 0.0 0.00 0.00 0.00 90 1004.9
20260905205608 15 247 0.0 0.0 0.00 0.00 0.00 90 1005.0
20260905205108 15 247 0.0 0.0 0.00 0.00 0.00 90 1005.0
20260905204608 15 247 0.0 0.0 0.00 0.00 0.00 89 1004.9
20260905204108 15 247 0.0 0.0 0.00 0.00 0.00 89 1004.9
20260905203608 15 247 0.0 0.0 0.00 0.00 0.00 89 1004.8
20260905203108 15 247 0.0 0.0 0.00 0.00 0.00 89 1004.7
20260905202608 15 247 0.0 0.0 0.00 0.00 0.00 89 1004.8
20260905202108 15 247 0.0 0.0 0.00 0.00 0.00 89 1004.7
20260905201608 15 247 0.0 0.0 0.00 0.00 0.00 89 1004.6
20260905201108 15 247 0.0 0.0 0.00 0.00 0.00 89 1004.5
20260905200608 15 247 0.0 0.0 0.00 0.00 0.00 89 1004.5
20260905200108 15 247 0.0 0.0 0.00 0.00 0.00 89 1004.4
20260905195608 15 247 0.0 0.0 0.00 0.00 0.00 89 1004.4
20260905195108 15 247 0.0 0.0 0.00 0.00 0.00 89 1004.4
20260905194608 15 225 0.0 0.0 0.00 0.00 0.00 88 1004.4
20260905194108 15 225 0.0 0.0 0.00 0.00 0.00 88 1004.4
20260905193608 15 247 0.0 0.0 0.00 0.00 0.00 88 1004.4
20260905193108 15 247 0.0 0.0 0.00 0.00 0.00 88 1004.3
20260905192608 16 247 0.0 0.0 0.00 0.00 0.00 88 1004.4
20260905192108 16 247 0.0 0.0 0.00 0.00 0.00 88 1004.4
20260905191608 16 247 0.0 0.0 0.00 0.00 0.00 88 1004.5
20260905191108 16 247 0.0 0.0 0.00 0.00 0.00 88 1004.5
20260905190608 16 247 0.0 0.0 0.00 0.00 0.00 88 1004.5
20260905190108 16 247 0.0 0.0 0.00 0.00 0.00 88 1004.7
20260905185608 16 225 0.0 0.0 0.00 0.00 0.00 88 1004.8
20260905185108 16 247 0.0 0.0 0.00 0.00 0.00 88 1004.9
20260905184608 16 247 0.0 0.0 0.00 0.00 0.00 88 1004.9
20260905184108 16 247 0.0 0.0 0.00 0.00 0.00 88 1004.9
20260905183608 16 247 0.0 0.0 0.00 0.00 0.00 88 1004.9
20260905183108 16 247 0.0 0.0 0.00 0.00 0.00 88 1004.9
20260905182608 16 247 0.0 0.0 0.00 0.00 0.00 88 1004.8
20260905182108 16 247 0.0 0.0 0.00 0.00 0.00 88 1004.7
20260905181608 16 247 0.0 0.0 0.00 0.00 0.00 88 1004.5
20260905181108 16 247 0.0 0.0 0.00 0.00 0.00 88 1004.5
20260905180608 16 270 0.0 0.0 0.00 0.00 0.00 88 1004.5
20260905180108 16 270 0.0 0.0 0.00 0.00 0.00 87 1004.4
20260905175608 16 270 0.0 0.0 0.00 0.00 0.00 87 1004.2
20260905175108 16 270 0.0 0.0 0.00 0.00 0.00 88 1004.2
20260905174608 16 270 0.0 0.0 0.00 0.00 0.00 88 1004.0
20260905174108 16 270 0.0 0.0 0.00 0.00 0.00 88 1003.9
20260905173608 16 270 0.0 0.0 0.00 0.00 0.00 88 1003.9
20260905173108 17 270 0.0 0.0 0.00 0.00 0.00 88 1003.7
20260905172608 17 270 0.0 0.0 0.00 0.00 0.00 88 1003.8
20260905172108 17 270 0.0 0.0 0.00 0.00 0.00 88 1003.6
20260905171608 17 270 0.0 0.0 0.00 0.00 0.00 88 1003.4
20260905171108 17 292 0.0 0.0 0.00 0.00 0.00 88 1003.3
20260905170608 17 292 0.0 0.0 0.00 0.00 0.00 89 1003.3
20260905170108 17 270 0.0 0.0 0.00 0.00 0.00 89 1003.3
20260905165608 17 270 0.0 0.0 0.00 0.00 0.00 88 1003.3
20260905165108 17 292 0.0 0.0 0.00 0.00 0.00 88 1003.3
20260905164608 17 270 0.0 0.0 0.00 0.00 0.00 88 1003.4
20260905164108 17 270 0.0 0.0 0.00 0.00 0.00 87 1003.6
20260905163608 17 247 0.0 0.0 0.00 0.00 0.00 87 1003.5
20260905163108 17 292 0.0 0.0 0.00 0.00 0.00 87 1003.6
20260905162608 18 292 0.0 0.0 0.00 0.00 0.00 87 1003.5
20260905162108 18 270 0.0 0.0 0.00 0.00 0.00 88 1003.6
20260905161608 18 247 0.0 0.0 0.00 0.00 0.00 88 1003.5
20260905161108 18 270 0.0 0.0 0.00 0.00 0.00 89 1003.5
20260905160608 17 270 0.0 0.0 0.00 0.00 0.00 88 1003.7
20260905160108 17 247 0.0 0.0 0.00 0.00 0.00 89 1003.4
20260905155608 17 247 0.0 0.0 0.00 0.00 0.00 88 1003.2
20260905155108 17 270 0.0 0.0 0.00 0.00 0.00 88 1003.3
20260905154608 17 270 0.0 0.0 0.00 0.00 0.00 86 1002.9
20260905154108 17 292 0.0 0.0 0.00 0.00 0.00 86 1002.9
20260905153608 18 292 0.0 0.0 0.00 0.00 0.00 83 1002.8
20260905153108 18 315 0.0 0.0 0.00 0.00 0.00 82 1003.1
20260905152608 18 292 0.0 0.0 0.00 0.00 0.00 79 1002.9
20260905152108 18 270 0.0 0.0 0.00 0.00 0.00 77 1003.1
20260905151608 17 270 0.0 0.0 0.00 0.00 0.00 69 1003.3
20260905151108 20 315 0.0 0.0 0.00 0.00 0.00 65 1003.6
20260905150608 20 315 0.0 0.0 0.00 0.00 0.00 63 1003.3
20260905150108 20 292 0.0 0.0 0.00 0.00 0.00 62 1002.8
20260905145608 20 315 0.0 0.0 0.00 0.00 0.00 61 1002.5
20260905145108 20 270 0.0 0.0 0.00 0.00 0.00 60 1002.6
20260905144608 21 292 0.0 0.0 0.00 0.00 0.00 60 1002.8
20260905144108 21 292 0.0 0.0 0.00 0.00 0.00 58 1002.8
20260905143608 21 292 0.0 0.0 0.00 0.00 0.00 58 1003.0
20260905143108 21 292 0.0 0.0 0.00 0.00 0.00 57 1003.3
20260905142608 22 292 0.0 0.0 0.00 0.00 0.00 56 1003.2
20260905142108 22 247 0.0 0.0 0.00 0.00 0.00 54 1002.9
20260905141608 22 270 0.0 0.0 0.00 0.00 0.00 53 1002.7
20260905141108 23 270 0.0 0.0 0.00 0.00 0.00 52 1002.5
20260905140608 23 315 0.0 0.0 0.00 0.00 0.00 52 1002.3
20260905140108 23 337 0.0 0.0 0.00 0.00 0.00 50 1002.3
20260905135608 23 292 0.0 0.0 0.00 0.00 0.00 49 1002.2
20260905135108 25 270 0.0 0.0 0.00 0.00 0.00 49 1002.0
20260905134608 25 292 0.0 0.0 0.00 0.00 0.00 47 1002.1
20260905134108 25 0 0.0 0.0 0.00 0.00 0.00 50 1002.1
20260905133608 24 292 0.0 0.0 0.00 0.00 0.00 55 1001.9
20260905133108 23 270 0.0 0.0 0.00 0.00 0.00 60 1002.0
20260905132608 20 315 0.0 0.0 0.00 0.00 0.00 65 1002.0
20260905132108 18 292 0.0 0.0 0.00 0.00 0.00 64 1002.2
20260905131608 17 247 0.0 0.0 0.00 0.00 0.00 65 1002.2
20260905131108 16 292 0.0 0.0 0.00 0.00 0.00 68 1002.1
20260905130608 16 247 0.0 0.0 0.00 0.00 0.00 68 1002.1
20260905130108 18 270 0.0 0.0 0.00 0.00 0.00 71 1002.2
20260905125608 20 270 0.0 0.0 0.00 0.00 0.00 67 1002.3
20260905125108 21 270 0.0 0.0 0.00 0.00 0.00 61 1002.3
20260905124608 22 270 0.0 0.0 0.00 0.00 0.00 56 1002.0
20260905124108 25 270 0.0 0.0 0.00 0.00 0.00 50 1002.2
20260905123608 26 315 0.0 0.0 0.00 0.00 0.00 48 1001.9
20260905123108 27 292 0.0 0.0 0.00 0.00 0.00 47 1001.8
20260905122608 26 247 0.0 0.0 0.00 0.00 0.00 48 1001.5
20260905122108 27 270 0.0 0.0 0.00 0.00 0.00 45 1001.5
20260905121608 28 270 0.0 0.0 0.00 0.00 0.00 44 1000.9
20260905121108 30 315 0.0 0.0 0.00 0.00 0.00 43 1000.9
20260905120608 31 292 0.0 0.0 0.00 0.00 0.00 42 1000.8
20260905120108 31 270 0.0 0.0 0.00 0.00 0.00 41 1000.8
20260905115608 31 292 0.0 0.0 0.00 0.00 0.00 40 1000.4
20260905115108 32 315 0.0 0.0 0.00 0.00 0.00 39 1000.4
20260905114608 33 315 0.0 0.0 0.00 0.00 0.00 38 1000.3
20260905114108 34 315 0.0 0.0 0.00 0.00 0.00 34 1000.2
20260905113608 38 315 0.0 0.0 0.00 0.00 0.00 30 1000.0
20260905113108 40 337 0.0 0.0 0.00 0.00 0.00 28 1000.0
20260905112608 39 315 0.0 0.0 0.00 0.00 0.00 28 1000.0
20260905112108 38 337 0.0 0.0 0.00 0.00 0.00 28 1000.0
20260905111608 39 315 0.0 0.0 0.00 0.00 0.00 27 1000.0
20260905111108 38 112 0.0 0.0 0.00 0.00 0.00 29 999.8
20260905110608 37 135 0.0 0.0 0.00 0.00 0.00 29 999.8
20260905110108 38 202 0.0 0.0 0.00 0.00 0.00 28 999.9
20260905105608 40 112 0.0 0.0 0.00 0.00 0.00 27 999.8
20260905105108 40 135 0.0 0.0 0.00 0.00 0.00 27 999.7
20260905104608 40 135 0.0 0.0 0.00 0.00 0.00 28 999.8
20260905104108 40 112 0.0 0.0 0.00 0.00 0.00 28 999.9
20260905103608 41 112 0.0 0.0 0.00 0.00 0.00 27 999.9
20260905103108 40 157 0.0 0.0 0.00 0.00 0.00 28 999.8
20260905102608 40 157 0.0 0.0 0.00 0.00 0.00 28 999.9
20260905102108 40 180 0.0 0.0 0.00 0.00 0.00 28 999.8
20260905101608 40 112 0.0 0.0 0.00 0.00 0.00 28 999.9
20260905101108 39 135 0.0 0.0 0.00 0.00 0.00 29 999.8
20260905100608 38 225 0.0 0.0 0.00 0.00 0.00 30 999.8
20260905100108 38 157 0.0 0.0 0.00 0.00 0.00 30 999.8
20260905095608 38 112 0.0 0.0 0.00 0.00 0.00 31 999.6
20260905095108 37 180 0.0 0.0 0.00 0.00 0.00 31 999.6
20260905094608 36 157 0.0 0.0 0.00 0.00 0.00 32 999.6
20260905094108 36 157 0.0 0.0 0.00 0.00 0.00 32 999.6
20260905093608 35 157 0.0 0.0 0.00 0.00 0.00 33 999.6
20260905093108 35 202 0.0 0.0 0.00 0.00 0.00 33 999.7
20260905092608 36 157 0.0 0.0 0.00 0.00 0.00 32 999.7
20260905092108 36 247 0.0 0.0 0.00 0.00 0.00 33 999.6
20260905091608 36 225 0.0 0.0 0.00 0.00 0.00 34 999.6
20260905091108 34 157 0.0 0.0 0.00 0.00 0.00 37 999.5
20260905090608 33 157 0.0 0.0 0.00 0.00 0.00 36 999.7
20260905090108 35 157 0.0 0.0 0.00 0.00 0.00 35 999.6
20260905085608 35 202 0.0 0.0 0.00 0.00 0.00 34 999.8
20260905085108 36 180 0.0 0.0 0.00 0.00 0.00 33 1000.0
20260905084608 35 225 0.0 0.0 0.00 0.00 0.00 35 999.8
20260905084108 33 180 0.0 0.0 0.00 0.00 0.00 39 999.7
20260905083608 33 202 0.0 0.0 0.00 0.00 0.00 40 999.7
20260905083108 32 135 0.0 0.0 0.00 0.00 0.00 42 999.8
20260905082608 30 157 0.0 0.0 0.00 0.00 0.00 45 999.8
20260905082108 29 157 0.0 0.0 0.00 0.00 0.00 45 1000.0
20260905081608 29 157 0.0 0.0 0.00 0.00 0.00 45 1000.2
20260905081108 29 157 0.0 0.0 0.00 0.00 0.00 44 1000.0
20260905080608 30 157 0.0 0.0 0.00 0.00 0.00 43 1000.0
20260905080108 30 135 0.0 0.0 0.00 0.00 0.00 42 1000.0
20260905075609 30 180 0.0 0.0 0.00 0.00 0.00 42 1000.1
20260905075108 30 157 0.0 0.0 0.00 0.00 0.00 42 1000.0
20260905074609 30 157 0.0 0.0 0.00 0.00 0.00 42 999.9
20260905074108 31 135 0.0 0.0 0.00 0.00 0.00 41 1000.0
20260905073608 31 180 0.0 0.0 0.00 0.00 0.00 39 1000.0
20260905073108 32 202 0.0 0.0 0.00 0.00 0.00 39 1000.0
20260905072609 33 112 0.0 0.0 0.00 0.00 0.00 39 1000.2
20260905072109 32 202 0.0 0.0 0.00 0.00 0.00 41 1000.0
20260905071609 31 225 0.0 0.0 0.00 0.00 0.00 41 1000.1
20260905071108 32 225 0.0 0.0 0.00 0.00 0.00 41 1000.4
20260905070608 32 202 0.0 0.0 0.00 0.00 0.00 41 1000.1
20260905070109 31 202 0.0 0.0 0.00 0.00 0.00 43 1000.3
20260905065608 30 270 0.0 0.0 0.00 0.00 0.00 43 1000.4
20260905065108 30 202 0.0 0.0 0.00 0.00 0.00 45 1000.4
20260905064609 28 202 0.0 0.0 0.00 0.00 0.00 46 1000.4
20260905064109 28 112 0.0 0.0 0.00 0.00 0.00 46 1000.5
20260905063609 27 225 0.0 0.0 0.00 0.00 0.00 47 1000.5
20260905063109 27 202 0.0 0.0 0.00 0.00 0.00 47 1000.6
20260905062609 27 225 0.0 0.0 0.00 0.00 0.00 47 1000.6
20260905062109 27 157 0.0 0.0 0.00 0.00 0.00 50 1000.4
20260905061609 26 225 0.0 0.0 0.00 0.00 0.00 50 1000.6
20260905061109 26 225 0.0 0.0 0.00 0.00 0.00 51 1000.5
20260905060609 25 180 0.0 0.0 0.00 0.00 0.00 53 1000.5
20260905060109 25 225 0.0 0.0 0.00 0.00 0.00 53 1000.6
20260905055609 25 90 0.0 0.0 0.00 0.00 0.00 55 1000.4
20260905055109 25 202 0.0 0.0 0.00 0.00 0.00 56 1000.5
20260905054609 24 135 0.0 0.0 0.00 0.00 0.00 58 1000.5
20260905054109 23 202 0.0 0.0 0.00 0.00 0.00 58 1000.7
20260905053609 23 247 0.0 0.0 0.00 0.00 0.00 60 1000.8